Regional Weather Roundup
Issued by NWS

Home | Current Version | Previous Version | Graphics & Text | Print | Product List | Glossary On
Versions: 1 2 3 4 5 6 7 8 9 10 11 12 13 14 15 16 17 18 19 20 21 22 23 24 25 26 27 28 29 30 31 32 33 34 35 36 37 38 39 40 41 42 43 44 45 46 47 48 49 50
000
ASUS43 KLOT 271901
RWRIL

ILLINOIS REGIONAL WEATHER ROUNDUP
NATIONAL WEATHER SERVICE CHICAGO/ROMEOVILLE IL
200 PM CDT THU AUG 27 2015

NOTE: "FAIR" INDICATES FEW OR NO CLOUDS BELOW 12,000 FEET WITH NO
SIGNIFICANT WEATHER AND/OR OBSTRUCTIONS TO VISIBILITY.

* THESE STATIONS ARE NOT UNDER NWS QUALITY CONTROL. THEY ALSO MAY NOT
  REPORT WEATHER SUCH AS PRECIPITATION OR FOG.

ILZ001-002-007-009-015-016-024-272000-
NORTHWEST ILLINOIS

CITY           SKY/WX    TMP DP  RH WIND       PRES   REMARKS
MOLINE         CLOUDY    74  59  59 SW7       30.17S
STERLING*      MOSUNNY  N/A N/A N/A SW6       30.14F
$$

ILZ003-004-008-010-011-017-018-272000-
NORTH CENTRAL ILLINOIS

CITY           SKY/WX    TMP DP  RH WIND       PRES   REMARKS
ROCKFORD       PTSUNNY   74  56  53 SW8       30.18F
FREEPORT*      PTSUNNY   70  56  62 CALM      30.19F
$$

ILZ005-006-012>014-019>023-272000-
NORTHEAST ILLINOIS

CITY           SKY/WX    TMP DP  RH WIND       PRES   REMARKS
CHICAGO-OHARE  MOSUNNY   73  52  47 E6        30.17F
CHICAGO-MIDWAY MOSUNNY   72  53  51 SW5       30.17F
AURORA         MOSUNNY   72  56  57 SW3       30.18F
LANSING*       CLOUDY    68  53  58 CALM      30.19F
WAUKEGAN       SUNNY     69  54  58 E8        30.17F
DUPAGE AIRPORT SUNNY     72  53  51 CALM      30.17F
WHEELING       SUNNY     74  51  44 CALM      30.19F
NORTHERLY ISL    N/A     66  56  70 NE8         N/A
$$

LMZ740>746-272000-
SOUTHERN LAKE MICHIGAN

STATION/POSITION SKY/WX   TEMP    WIND        PRES    VSBY  WAVE
                          AIR SEA DIR/SP/G                  HT/PER
                          (F)     (DEG/KT/KT) (MB)    (MI)  (FT/S)
SOUTHERN BUOY              65 67  190/  8/ 10 1022.2S         1/ 3
HARRISON CRIB              64     310/  3/  3   N/A
BURNHAM HARBOR             67      40/  6/  7   N/A
CALUMET HARBOR             66      40/  4/  5   N/A
BURNS HARBOR               66     330/  6/  7 1023.0R
MICHIGAN CITY              67     320/  5/  6   N/A
MICHIGAN CITY 6N           66 71  360/  2/  2   N/A           1
ST. JOSEPH                 66 71  200/  4/  6   N/A           1
$$

ILZ025>027-034>036-040-047-049-050-058-095>099-272000-
WEST-CENTRAL ILLINOIS

CITY           SKY/WX    TMP DP  RH WIND       PRES   REMARKS
QUINCY         CLOUDY    74  56  53 VRB3      30.17F
MACOMB*        CLOUDY    73  58  58 S5        30.19F
$$

ILZ028>032-037-038-041>044-048-051>054-059>061-272000-
CENTRAL ILLINOIS

CITY           SKY/WX    TMP DP  RH WIND       PRES   REMARKS
DECATUR        SUNNY     77  58  51 VRB5      30.16F
PEORIA         PTSUNNY   75  56  51 VRB5      30.16F
SPRINGFIELD    PTSUNNY   76  57  51 CALM      30.16F
TAYLORVILLE    NOT AVBL
$$

ILZ033-039-045-046-055>057-062-063-272000-
EAST-CENTRAL ILLINOIS

CITY           SKY/WX    TMP DP  RH WIND       PRES   REMARKS
CHAMPAIGN      MOSUNNY   76  59  55 CALM      30.16F
MATTOON        SUNNY     78  55  44 CALM      30.15F
$$

ILZ079-100>102-272000-
SOUTHWEST ILLINOIS

CITY           SKY/WX    TMP DP  RH WIND       PRES   REMARKS
ALTON          PTSUNNY   75  59  57 N6        30.15F
BELLEVILLE     MOSUNNY   76  59  55 VRB2      30.13F
CAHOKIA*       MOSUNNY   79  54  41 VRB3      30.14F
$$

ILZ064>066-069>071-074>076-080>082-084>086-088>090-092>094-272000-
SOUTH-CENTRAL ILLINOIS

CITY           SKY/WX    TMP DP  RH WIND       PRES   REMARKS
CARBONDALE     MOSUNNY   78  57  48 CALM      30.15F
MARION         CLOUDY    79  57  47 W7        30.16S HX  80
MT. VERNON     PTSUNNY   79  57  47 SW6       30.16F HX  80
SALEM*         SUNNY     77  57  49 NW3       30.16F
$$

ILZ067-068-072-073-078-083-087-091-272000-
SOUTHEAST ILLINOIS

CITY           SKY/WX    TMP DP  RH WIND       PRES   REMARKS
LAWRENCEVILLE  SUNNY     81  57  43 S7        30.15R HX  81
FLORA*         SUNNY     80  56  42 W3        30.16F HX  80
ROBINSON*      MOSUNNY   81  58  45 W5        30.16R HX  81
$$

ABBREVIATIONS USED IN REMARKS
   TC - TEMPERATURE IN CELSIUS
  WCI - WIND CHILL INDEX
   HX - HEAT INDEX
  VSB - VISIBILITY
$$



USA.gov is the U.S. government's official web portal to all federal, state and local government web resources and services.